Regional Weather Roundup
Issued by NWS Cleveland, OH

Home | Current Version | Previous Version | Text Only | Print | Product List | Glossary Off
Versions: 1 2 3 4 5 6 7 8 9 10 11 12 13 14 15 16 17 18 19 20 21 22 23 24 25 26 27 28 29 30 31 32 33 34 35 36 37 38 39 40 41 42 43 44 45 46 47 48 49 50

000
ASUS41 KCLE 171402
RWRCLE
OHIO REGIONAL WEATHER ROUNDUP
NATIONAL WEATHER SERVICE CLEVELAND, OH
1000 AM EDT THU APR 17 2014

NOTE: "FAIR" INDICATES FEW OR NO CLOUDS BELOW 12,000 FEET WITH NO
SIGNIFICANT WEATHER AND/OR OBSTRUCTIONS TO VISIBILITY.

OHZ001>008-015>018-024>027-034-035-043-044-171500-
   NORTHWEST OHIO

CITY           SKY/WX    TMP DP  RH WIND       PRES   REMARKS
DEFIANCE       SUNNY     45  27  49 S10       30.31S
FINDLAY        SUNNY     47  29  49 S15       30.31F
TOLEDO EXPRESS SUNNY     44  25  47 S9G16     30.32S
TOLEDO EXEC    SUNNY     47  28  47 S12       30.33F
LIMA           SUNNY     49  30  48 S15       30.31S
$$

OHZ009>014-019>023-028>033-038-089-171500-
   NORTHEAST OHIO

CITY           SKY/WX    TMP DP  RH WIND       PRES   REMARKS
CLE-HOPKINS    PTSUNNY   50  25  37 S20G26    30.40S
CLE-LAKEFRONT  PTSUNNY   47  23  38 S21G26    30.36S
CUY CO. ARPT   MOSUNNY   46  25  42 S12G21    30.38F
LORAIN-ELYRIA  SUNNY     49  27  42 S13       30.37S
ASHTABULA      SUNNY     43  21  41 S21G26    30.43S
AKRON-CANTON   PTSUNNY   44  22  41 SE16      30.40S
WOOSTER        SUNNY     46  26  45 S16G22    30.39S
MANSFIELD      SUNNY     47  27  45 S17G23    30.35S
YOUNGSTOWN     PTSUNNY   44  20  38 SE14      30.43R
$$

OHZ042-051>053-060>062-070>072-077>081-171500-
  SOUTHWEST OHIO

CITY           SKY/WX    TMP DP  RH WIND       PRES   REMARKS
CINC-COVINGTON MOSUNNY   53  31  42 S17G24    30.35R
CINC-LUNKEN    SUNNY     50  33  52 S9        30.37S
HAMILTON       SUNNY     56  31  38 VRB5      30.35F
DAYTON         MOSUNNY   51  29  42 S13       30.34R
WRIGHT-PAT AFB SUNNY     53  29  39 SW14G21   30.34S
DAYTON GENERAL SUNNY     51  30  44 S14       30.34R
WILMINGTON     MOSUNNY   52  30  43 SW14      30.35S
$$

OHZ036-037-039>041-045>050-054>059-063>069-073>076-082>088-171500-
  CENTRAL AND SOUTHEAST OHIO

CITY           SKY/WX    TMP DP  RH WIND       PRES   REMARKS
COLUMBUS       MOSUNNY   52  26  36 S10       30.38R
OSU AIRPORT    SUNNY     50  27  40 S10       30.36S
BOLTON FIELD   SUNNY     48  32  53 S10G16    30.38R
RICKENBACK AFB NOT AVBL
NEWARK         MOSUNNY   50  25  37 S10       30.38S
MARION         SUNNY     49  28  44 S15       30.35S
LANCASTER      MOSUNNY   52  26  36 S13       30.39R
ZANESVILLE     MOSUNNY   49  24  37 S14       30.41S
NEW PHILLY     SUNNY     45  20  36 SE10      30.43S
$$



USA.gov is the U.S. government's official web portal to all federal, state and local government web resources and services.